Weather in Sunshine Coast

Australia     26°36′05″S   153°05′32″E
temp.,
°C
wind,
m/s
gust,
m/s
humid.,
%
clouds,
%
prec.,
mm/h
press.,
hPa
HPBL,
m
20 september, mon
mon2001:00+13wnw11985 0.0 102130
04:00+13nw239812 0.0 102051
07:00+16nw24830 0.0 1022159
10:00+25n34440 0.0 10201120
13:00+28nne45406 0.0 10161897
16:00+24nne510580 0.0 1014635
19:00+20n3116812 0.0 1015578
22:00+17nw2128035 0.0 1016600
21 september, tue
tue2101:00+18nw3137791 0.0 1013738
04:00+18nw3127270 0.0 1012585
07:00+19wnw287187 0.0 1013434
10:00+25wsw58230 0.0 10122071
13:00+25wsw510195 0.0 10103185
16:00+22sw59181 0.0 10113279
19:00+15sw411210 0.0 10151912
22:00+12ssw411295 0.0 10171149
22 september, wed
wed2201:00+9sw273914 0.0 1018181
04:00+6sw27540 0.0 1018156
07:00+11ssw310510 0.0 1020496
10:00+19sse48401 0.0 10201611
13:00+21se46397 0.0 10192150
16:00+19se45490 0.0 10191075
19:00+15se26670 0.0 1021300
22:00+14s14732 0.0 1023148
23 september, thu
thu2301:00+10ssw25870 0.0 1022153
04:00+8sw129621 0.0 102340
07:00+13sw12710 0.0 1024136
10:00+22ese23430 0.0 10231748
13:00+22e434638 0.0 10211758
16:00+20ene33560 0.0 1020926
19:00+14nne12830 0.0 102243
22:00+12wnw12930 0.0 102245
24 september, fri
fri2401:00+10w129825 0.0 102233
04:00+10wnw11970 0.0 102126
07:00+14wnw13800 0.0 1022118
10:00+24n22390 0.0 10201335
13:00+25ne45390 0.0 10171542
16:00+21ne47575 0.0 1016627
19:00+17n3775100 0.0 1017415
22:00+13nw259243 0.0 1019124